Weather History for Pendleton, OR

Change the Weather History Date:

Friday, April 12, 2013

  Actual Average Record
Temperature  
Mean Temperature 44 °F 50 °F  
Max Temperature 59 °F 61 °F 85 °F (1934)
Min Temperature 29 °F 39 °F 23 °F (1903)
Degree Days  
Heating Degree Days 21 15  
Month to date heating degree days 169 190  
Since 1 July heating degree days 4495 4706  
Cooling Degree Days 0 0  
Month to date cooling degree days 0 0  
Year to date cooling degree days 0 0  
Moisture  
Dew Point 35 °F    
Average Humidity 66    
Maximum Humidity 93    
Minimum Humidity 39    
Precipitation  
Precipitation 0.04 in 0.04 in 0.61 in (1912)
Month to date precipitation 0.45 0.45  
Year to date precipitation 2.35 4.31  
Snow  
Snow 0.00 in 0.00 in 1.10 in (1972)
Month to date snowfall T 0.0  
Year to date snowfall 0.2 7.7  
Since 1 July snowfall 2.0 15.2  
Snow Depth 0.00 in    
Sea Level Pressure  
Sea Level Pressure 29.90 in    
Wind  
Wind Speed 7 mph (South)    
Max Wind Speed 17 mph    
Max Gust Speed 20 mph    
Visibility 10 miles    
Events Rain    
T = Trace of Precipitation, MM = Missing Value Source: NWS Daily Summary

Daily Weather History Graph

Daily Weather History Graph

Search for Another Location

Airport:

Trip Planner

Search our weather history database for the weather conditions in past years. The results will help you decide how hot, cold, wet, or windy it might be!

Date:

Astronomy

Apr. 12, 2013 Rise Set
Actual Time 6:14 AM PDT 7:38 PM PDT
Civil Twilight 5:43 AM PDT 8:09 PM PDT
Nautical Twilight 5:06 AM PDT 8:46 PM PDT
Astronomical Twilight 4:26 AM PDT 9:26 PM PDT
Moon 7:20 AM PDT (4/12) 10:21 PM PDT (4/12)
Length of Visible Light 14h 25m
Length of Day
13h 24m
Waxing Crescent, 6% of the Moon is Illuminated
Apr 12
Waxing Crescent
Apr 18
First Quarter
Apr 25
Full
May 2
Last Quarter
May 9
New

Hourly Weather History & Observations

Time (PDT) Temp. Windchill Dew Point Humidity Pressure Visibility Wind Dir Wind Speed Gust Speed Precip Events Conditions
12:53 AM 37.0 °F 33.3 °F 30.9 °F 79% 30.12 in 10.0 mi SSE 4.6 mph - N/A   Clear
1:53 AM 35.1 °F 27.9 °F 30.9 °F 85% 30.11 in 10.0 mi SE 9.2 mph - N/A   Clear
2:53 AM 34.0 °F 28.0 °F 30.0 °F 85% 30.09 in 10.0 mi SSE 6.9 mph - N/A   Clear
3:53 AM 33.1 °F 26.9 °F 30.0 °F 89% 30.08 in 10.0 mi SSE 6.9 mph - N/A   Clear
4:53 AM 32.0 °F 25.6 °F 28.9 °F 88% 30.08 in 10.0 mi SSE 6.9 mph - N/A   Clear
5:53 AM 28.9 °F 21.9 °F 27.0 °F 92% 30.09 in 10.0 mi SE 6.9 mph - N/A   Clear
6:53 AM 32.0 °F 24.2 °F 30.0 °F 92% 30.08 in 10.0 mi ESE 9.2 mph - N/A   Clear
7:53 AM 37.0 °F 30.4 °F 32.0 °F 82% 30.06 in 10.0 mi SE 9.2 mph - N/A   Clear
8:53 AM 42.1 °F - 32.0 °F 67% 30.03 in 10.0 mi Calm Calm - N/A   Clear
9:53 AM 48.0 °F - 33.1 °F 56% 30.00 in 10.0 mi Calm Calm - N/A   Clear
10:53 AM 52.0 °F - 30.9 °F 45% 29.96 in 10.0 mi Calm Calm - N/A   Clear
11:53 AM 55.0 °F - 33.1 °F 43% 29.91 in 10.0 mi SW 3.5 mph - N/A   Clear
12:53 PM 57.0 °F - 32.0 °F 39% 29.87 in 10.0 mi WSW 6.9 mph - N/A   Clear
1:53 PM 59.0 °F - 35.1 °F 41% 29.83 in 10.0 mi NNE 5.8 mph - N/A   Clear
2:53 PM 57.9 °F - 36.0 °F 44% 29.82 in 10.0 mi WNW 9.2 mph - N/A   Mostly Cloudy
3:53 PM 54.0 °F - 37.9 °F 55% 29.80 in 10.0 mi NW 15.0 mph - N/A   Overcast
4:53 PM 53.1 °F - 37.0 °F 55% 29.79 in 10.0 mi WNW 15.0 mph - N/A   Overcast
5:53 PM 51.1 °F - 37.9 °F 61% 29.78 in 10.0 mi WNW 6.9 mph - 0.00 in   Overcast
6:53 PM 50.0 °F - 42.1 °F 74% 29.73 in 10.0 mi SE 3.5 mph - 0.00 in Rain Light Rain
7:53 PM 46.9 °F - 45.0 °F 93% 29.70 in 10.0 mi NNW 8.1 mph - 0.02 in Rain Light Rain
8:53 PM 45.0 °F 38.5 °F 41.0 °F 86% 29.71 in 10.0 mi NW 13.8 mph - 0.00 in   Overcast
9:53 PM 44.1 °F 42.5 °F 41.0 °F 89% 29.73 in 10.0 mi NNE 3.5 mph - 0.01 in Rain Light Rain
10:53 PM 44.1 °F 41.5 °F 39.9 °F 85% 29.71 in 10.0 mi South 4.6 mph - 0.01 in   Overcast
11:53 PM 44.1 °F 39.5 °F 41.0 °F 89% 29.69 in 10.0 mi South 8.1 mph - N/A   Overcast